Theta_e
322 313 314 311 300 294 290 293 296 298 297 299 302 304 303 303 303 297 319 329 344 346 350 351 351 354 353 353 353 352 353 352 351 350 349 347 345 343 342 341 339 338 336 334 333 337 339 341 342
314 317 312 303 294 288 289 294 296 298 300 302 302 301 303 303 313 315 319 328 345 347 350 350 348 352 353 353 352 351 351 350 349 349 348 347 344 342 340 339 337 336 334 333 333 335 337 339 340
317 314 303 298 291 287 290 293 297 299 300 299 300 304 304 306 313 314 323 329 345 346 349 348 348 351 351 351 350 350 349 350 349 348 347 346 344 342 339 337 336 334 332 331 332 333 336 337 337
308 307 302 294 289 293 293 294 299 299 299 302 301 301 308 317 316 318 328 330 338 345 347 345 348 351 350 349 349 349 349 349 348 346 346 345 343 340 338 336 334 332 330 329 330 331 333 334 335
306 300 294 290 289 293 294 298 299 299 298 298 301 299 302 311 321 325 327 332 334 341 344 346 346 348 349 348 348 348 347 347 347 346 345 343 341 340 337 335 333 331 328 326 327 328 329 330 331
300 295 290 288 290 293 295 297 297 297 297 298 301 299 300 307 315 320 328 329 334 341 343 345 340 344 345 346 347 347 347 346 346 345 343 341 342 338 335 334 332 330 328 323 322 323 323 323 324
299 292 288 290 291 293 296 298 295 295 296 296 300 297 297 301 305 317 326 323 323 335 341 343 342 340 339 341 341 343 344 344 345 344 343 341 339 337 335 334 332 330 327 321 318 317 317 316 317
298 293 292 291 291 292 297 298 298 298 296 300 300 296 294 299 304 316 317 316 314 315 319 331 337 338 340 340 335 337 339 340 341 339 336 333 333 333 332 331 332 331 328 324 319 317 316 316 316
299 290 288 291 290 294 297 296 298 299 298 299 300 297 300 302 304 311 311 310 309 310 310 312 315 332 334 340 337 333 334 335 335 333 329 328 330 328 328 327 331 330 328 326 325 323 318 315 316
295 290 291 292 293 294 297 297 297 295 296 296 297 300 302 302 302 302 302 301 302 304 307 309 310 312 323 336 339 338 336 335 336 334 328 330 329 328 326 323 327 328 327 327 325 323 319 313 307
296 291 293 294 298 299 298 296 298 295 293 295 296 297 299 299 299 300 300 301 302 304 308 310 311 312 311 325 333 338 337 334 334 332 331 332 328 326 323 319 319 319 318 317 318 315 312 310 309
292 297 297 300 299 298 296 298 295 295 295 298 298 298 298 298 298 299 300 301 303 305 307 310 312 312 312 321 329 328 327 327 327 330 334 330 327 326 324 323 321 317 316 316 314 313 313 312 311
294 296 298 300 299 297 299 296 295 295 296 298 299 298 297 297 298 299 301 303 304 304 306 309 312 313 314 328 323 321 320 319 319 321 324 331 330 326 323 321 318 315 316 315 313 313 313 311 311
296 297 297 299 299 299 296 295 296 294 296 296 297 296 295 296 296 297 299 301 302 303 305 308 313 312 317 316 315 314 314 313 314 315 316 320 323 320 316 314 313 312 312 312 312 312 312 312 311
297 293 295 297 298 297 297 294 294 296 296 295 295 294 295 295 296 296 299 299 300 302 303 306 308 310 310 310 310 309 309 309 308 310 311 312 314 312 310 308 307 307 309 309 307 307 306 305 305
293 292 289 296 297 296 296 290 296 295 295 293 293 292 294 295 296 296 298 298 299 301 302 302 304 303 303 304 304 303 304 305 305 304 306 307 307 307 305 304 303 305 305 306 305 303 298 297 298
289 286 288 293 297 295 293 290 293 295 294 293 292 292 293 293 294 296 296 296 298 300 300 299 300 299 299 299 300 300 300 300 301 302 302 302 302 302 301 300 299 299 297 298 300 295 295 290 291
287 287 289 290 294 293 291 291 293 294 294 293 292 292 292 292 293 295 295 296 298 299 298 299 298 298 298 298 297 296 295 295 295 295 295 297 298 297 294 294 294 294 293 292 293 290 289 287 287
291 289 288 292 295 292 291 291 293 294 292 291 292 292 292 292 293 295 295 295 295 297 298 298 298 298 298 297 296 294 291 291 292 292 293 291 292 293 291 291 290 289 289 288 288 289 287 287 287
292 289 289 292 294 292 291 290 293 293 293 294 294 293 292 290 291 294 293 294 294 294 297 299 298 298 298 297 295 293 291 290 290 291 291 291 290 290 289 288 287 287 286 286 285 285 285 285 286
291 290 290 290 291 290 288 288 290 293 294 294 296 294 293 290 290 292 292 292 292 294 297 298 297 296 295 293 292 291 290 289 288 288 287 287 288 288 288 287 287 286 286 284 284 283 283 281 283
289 294 293 292 288 284 288 283 287 291 291 292 294 292 292 290 291 293 292 291 292 296 298 298 296 294 294 293 292 290 288 286 285 285 285 286 286 286 287 286 286 285 285 283 283 283 283 282 281
290 293 292 290 287 284 285 283 284 291 291 291 293 290 290 291 291 292 292 292 292 295 296 296 295 294 294 293 290 288 285 285 285 284 284 284 284 285 285 285 284 284 284 282 282 281 282 282 281
294 291 290 288 286 280 285 284 288 290 294 297 293 290 290 289 290 292 291 290 291 293 293 293 292 291 291 290 288 286 285 284 283 283 283 283 283 283 283 283 282 282 282 282 281 280 280 280 280
291 287 280 278 278 279 286 284 289 292 293 294 291 291 289 290 290 289 288 288 289 291 290 291 290 288 288 287 286 286 285 285 284 283 283 282 282 281 281 281 281 281 281 282 281 280 280 280 279
287 288 281 274 277 279 282 281 287 293 290 293 293 292 290 289 289 288 287 287 288 289 289 289 288 286 287 287 286 286 286 285 285 284 283 282 282 281 281 281 281 281 281 281 280 280 279 278 278
287 285 291 285 273 276 282 285 290 290 288 288 289 290 288 288 287 286 287 286 286 286 286 287 286 286 286 286 286 286 285 285 284 283 283 282 281 282 281 280 280 280 279 279 278 278 277 277 277
289 291 284 287 276 277 281 281 286 287 287 287 288 289 289 288 287 286 286 285 286 285 285 285 286 286 285 285 286 285 284 284 283 283 281 281 281 281 280 279 278 278 277 277 277 276 276 275 275
286 286 288 289 282 276 275 282 289 292 291 289 289 290 289 288 286 285 285 286 286 285 285 285 285 284 284 285 284 284 284 283 283 282 281 280 280 279 279 278 278 277 276 276 275 275 274 274 274
292 290 290 285 279 282 280 285 288 289 292 292 291 291 290 289 286 285 285 285 285 284 284 285 285 285 285 285 284 284 283 282 281 280 279 279 278 278 278 278 277 276 276 275 274 274 274 273 274
Wind_Speed
8 8 1 5 6 6 2 3 4 4 4 1 5 13 10 3 4 6 6 7 14 12 10 9 11 11 10 9 9 8 8 11 14 13 15 16 15 15 15 15 15 14 15 15 13 13 13 12 12
5 5 5 2 6 4 4 4 8 4 4 6 10 6 9 5 5 4 3 2 13 12 10 8 11 11 11 10 8 9 8 9 12 13 14 16 15 14 15 15 14 15 15 15 15 14 14 13 12
4 2 4 5 4 3 3 3 7 4 3 1 5 7 5 3 3 3 4 2 12 13 10 9 10 11 12 11 8 8 8 9 12 13 14 15 15 15 15 15 15 15 15 16 16 15 14 14 12
2 5 5 6 5 7 6 5 7 6 3 5 6 9 5 4 2 3 1 5 8 10 11 12 11 9 8 13 10 9 9 10 11 13 14 15 16 15 15 14 15 15 15 15 15 14 14 14 13
4 4 4 4 3 6 3 2 5 5 5 4 5 4 4 4 5 4 6 7 8 7 10 10 13 10 10 9 9 9 9 10 12 13 14 15 15 15 14 14 14 14 14 14 14 14 14 13 13
5 4 5 2 2 4 3 2 1 3 3 5 8 6 3 4 7 6 7 5 8 7 8 10 10 10 9 9 9 9 9 10 12 14 15 16 16 15 15 15 14 14 14 14 14 14 14 13 14
4 4 3 2 4 3 5 3 3 3 4 3 6 5 2 3 5 5 8 10 9 8 6 5 7 8 8 8 8 8 10 11 13 14 14 15 15 15 15 14 15 15 14 14 13 14 14 15 14
4 5 2 1 4 2 4 3 4 6 0 3 3 6 5 4 6 5 8 8 9 8 7 6 6 6 2 4 8 9 10 11 12 13 13 12 12 11 14 11 14 15 15 14 13 12 12 14 15
3 5 2 3 3 5 3 3 2 2 6 5 4 4 5 4 2 6 6 6 6 7 7 7 6 4 4 3 6 7 9 11 12 12 12 10 5 6 6 7 10 16 14 13 12 11 10 9 11
6 4 2 0 3 4 5 4 5 4 4 4 5 4 5 5 6 8 7 6 5 5 6 6 7 7 4 2 3 5 5 5 6 8 8 5 6 4 6 7 9 6 13 10 10 12 11 8 4
2 3 2 4 3 5 3 3 2 4 3 3 7 7 6 6 8 8 6 5 4 5 5 7 6 6 5 3 1 2 3 3 3 7 6 6 6 5 4 4 3 3 6 4 5 4 4 6 4
3 3 3 1 2 3 1 1 1 2 4 7 9 7 6 8 7 6 6 5 5 6 5 6 7 6 4 1 4 5 5 4 4 5 4 6 4 5 4 3 4 4 3 5 5 3 4 6 6
3 3 2 3 3 1 2 2 3 5 7 8 8 8 8 7 7 6 7 7 6 6 5 5 6 5 4 5 5 5 6 5 4 5 6 4 5 6 5 5 4 4 3 4 4 4 4 5 5
1 3 5 4 6 2 3 4 2 2 7 9 8 8 7 7 6 5 6 5 6 4 4 4 6 6 7 7 7 6 6 6 6 6 6 8 6 7 6 6 5 5 4 4 4 4 5 5 5
2 4 6 7 7 5 5 8 11 7 9 9 8 8 7 6 7 6 6 6 5 3 3 4 6 7 8 8 8 6 7 7 7 7 9 10 9 9 8 6 6 5 3 5 4 5 6 6 5
1 0 2 4 9 3 8 10 5 11 12 9 9 8 8 7 8 6 7 6 5 5 5 6 6 8 9 9 7 7 7 8 7 7 7 11 11 10 9 7 6 4 4 4 6 6 5 4 4
3 4 6 7 7 6 5 7 1 6 7 8 9 9 8 7 6 6 7 7 6 6 6 7 8 9 10 10 9 9 10 8 7 8 8 11 11 10 8 7 6 6 6 6 5 7 4 4 4
6 5 5 6 5 4 7 11 5 8 8 10 10 10 10 10 8 8 8 7 6 7 7 9 8 9 10 9 9 8 9 8 8 8 7 9 8 8 8 8 8 7 7 6 7 7 6 4 4
4 4 5 5 3 5 10 10 12 12 7 9 10 10 11 10 8 8 7 7 7 6 7 9 11 9 8 7 8 7 7 8 9 7 10 10 9 9 9 8 9 8 9 8 7 3 9 11 7
8 8 11 7 5 6 8 15 9 9 14 16 19 15 13 9 9 9 8 7 5 6 7 9 9 9 5 5 6 6 7 8 8 8 10 9 9 9 9 10 9 8 9 10 9 7 3 6 9
7 11 6 8 2 4 5 10 10 9 12 10 14 10 12 17 14 10 10 8 8 8 9 10 8 8 8 11 10 10 10 8 8 7 8 7 9 9 10 10 9 9 8 8 7 6 6 5 5
12 6 6 5 2 7 4 15 7 6 10 11 16 15 15 15 10 13 11 9 9 10 10 10 11 11 11 11 10 11 9 10 4 6 7 8 8 10 10 10 9 9 6 8 7 6 6 4 6
5 1 5 5 5 3 2 7 2 5 9 12 18 11 14 16 16 15 13 11 8 10 11 10 11 11 12 9 10 10 12 9 7 7 10 9 8 9 9 9 8 8 7 7 8 8 9 6 6
7 5 7 5 3 9 8 8 23 13 18 17 6 10 14 14 15 13 12 11 10 8 9 10 10 8 10 12 12 14 17 14 11 9 8 7 6 6 7 8 8 7 7 7 6 6 9 7 6
5 8 2 4 1 10 7 11 21 7 6 8 13 16 14 15 16 15 16 13 11 12 10 9 10 11 11 13 13 13 15 14 14 11 9 10 6 4 6 6 6 5 7 7 6 7 7 6 4
8 11 8 8 6 5 1 12 9 7 7 5 10 15 15 15 15 16 16 14 13 13 12 11 11 11 11 13 13 11 11 8 9 9 8 7 7 6 6 6 7 7 7 6 6 4 4 6 5
6 10 7 1 2 2 7 8 9 7 2 3 9 15 18 17 16 17 14 13 11 11 12 13 11 10 12 12 12 12 9 11 10 10 9 7 7 7 7 7 7 7 6 6 6 5 5 5 4
8 7 4 3 5 8 6 8 13 7 10 8 11 15 15 16 17 16 15 14 12 12 10 10 11 12 10 11 11 10 10 10 11 10 10 8 7 8 8 7 7 6 6 6 6 5 5 5 4
4 5 5 7 6 5 4 9 7 15 10 16 14 15 18 18 17 16 14 13 12 11 12 12 11 12 12 12 10 11 10 10 9 9 9 9 8 8 7 7 7 6 6 6 6 5 5 6 4
4 7 10 6 7 6 2 16 0 5 9 13 14 15 15 16 16 15 16 16 16 15 13 14 13 14 13 12 12 12 11 11 10 10 8 8 9 7 7 7 7 6 6 5 6 5 5 5 4
Wind_Direction
320 303 154 40 55 63 97 7 97 72 41 3 35 91 110 69 75 152 236 89 125 139 137 136 131 125 117 110 106 111 118 122 117 109 105 96 85 79 73 69 64 59 57 58 61 60 58 52 51
323 318 41 78 81 70 287 108 89 99 155 124 119 91 52 61 40 89 53 8 151 135 141 139 141 137 133 121 118 120 113 120 118 118 111 102 94 82 75 70 65 60 56 55 55 56 55 55 52
292 197 78 97 95 142 136 141 141 127 107 130 106 61 71 345 343 94 193 158 152 137 141 141 146 148 149 132 119 120 117 123 123 123 119 107 94 84 75 70 68 64 61 58 56 55 55 52 52
7 12 20 77 127 352 119 157 141 127 19 67 117 70 59 314 85 145 39 118 120 140 139 145 145 151 158 129 133 128 122 119 123 120 114 109 100 93 84 78 70 64 62 61 62 62 60 54 47
36 67 48 115 107 144 91 102 116 149 151 81 113 118 81 8 41 40 63 106 108 122 136 140 139 143 138 137 137 133 129 132 122 119 117 115 112 100 92 91 83 75 69 67 66 64 62 56 48
18 87 51 5 119 112 88 95 25 109 136 93 75 99 121 305 29 3 67 88 101 123 134 139 135 139 146 151 151 145 142 135 129 126 124 121 118 110 108 102 94 87 80 76 72 67 64 58 49
101 79 200 91 154 127 158 134 50 151 100 75 132 82 148 6 305 357 68 56 50 56 84 86 130 142 158 164 164 159 153 144 134 132 126 121 122 121 115 111 103 92 81 78 75 69 63 58 54
99 93 322 305 186 130 183 105 117 88 149 99 55 145 183 227 279 93 74 71 55 54 51 53 54 86 100 175 173 169 157 148 140 132 128 133 132 124 124 120 115 103 93 87 84 77 67 59 52
63 61 358 307 111 162 186 109 39 148 90 55 31 96 160 207 282 94 74 57 45 33 33 25 30 40 73 71 181 174 164 156 145 138 138 129 125 115 111 109 118 116 104 99 90 84 86 62 48
81 93 255 180 344 154 163 119 162 112 126 75 68 60 93 61 70 94 91 74 60 48 31 25 9 359 20 10 102 166 149 155 148 148 148 132 125 116 108 95 93 88 106 86 71 65 64 63 50
28 159 321 14 52 45 136 100 152 130 171 202 180 155 124 93 72 89 89 90 94 71 39 17 5 344 344 325 24 25 124 112 117 135 152 127 115 109 98 90 73 36 38 57 42 60 57 57 53
61 264 95 326 40 48 68 80 128 153 154 126 121 141 116 113 108 105 94 86 65 57 30 1 347 325 297 278 82 73 80 79 77 80 134 137 123 112 108 95 90 65 48 46 45 22 49 52 42
137 310 123 123 123 232 352 234 202 174 154 130 126 113 126 121 127 113 109 82 76 56 18 6 4 346 312 86 84 79 82 74 64 64 51 114 124 113 100 74 72 59 38 54 46 37 47 46 39
167 348 289 205 190 213 190 267 143 150 154 141 141 142 134 132 133 110 95 94 78 67 32 356 39 35 80 69 73 76 74 70 61 57 48 64 85 93 87 81 63 57 42 37 43 22 30 37 24
57 327 314 233 195 218 136 292 232 164 160 154 161 157 144 149 117 134 119 115 120 104 70 55 67 55 72 79 74 70 68 68 63 57 54 64 74 82 81 76 70 56 39 63 42 45 41 40 20
314 57 318 271 154 205 125 262 284 165 154 176 180 181 169 174 151 139 124 120 111 109 95 74 83 73 73 76 78 76 71 73 71 65 60 69 71 76 81 78 68 42 42 38 57 43 38 27 18
325 241 221 305 170 134 161 259 187 180 167 190 197 191 185 174 155 139 126 124 122 125 118 99 91 92 93 86 87 89 88 79 79 81 79 82 81 80 86 76 65 61 54 42 54 44 40 23 5
202 225 261 233 220 154 193 251 213 204 191 209 205 196 189 178 176 152 134 129 125 121 116 111 106 106 105 107 105 91 85 81 79 77 75 78 81 84 87 81 70 60 62 51 54 54 26 33 5
200 211 247 255 251 158 218 236 230 210 216 216 220 209 192 176 161 142 132 132 128 120 122 125 126 129 128 128 116 99 100 90 81 74 70 68 72 68 74 73 66 61 66 58 41 48 45 27 10
234 248 262 300 199 172 251 245 242 196 217 209 209 207 187 153 157 149 143 148 162 143 131 131 130 137 141 123 117 107 111 95 91 85 73 67 68 72 79 80 75 67 72 58 47 37 50 48 23
220 222 239 228 223 270 297 264 241 235 217 213 224 202 183 167 162 159 154 157 154 155 146 141 137 131 117 115 113 110 106 97 97 86 78 62 76 79 82 80 83 76 75 73 62 52 64 73 29
243 213 214 242 275 255 155 287 229 225 229 224 220 190 177 169 161 156 157 161 169 161 153 148 140 130 132 136 131 129 123 123 101 105 102 85 73 78 80 82 79 79 78 75 69 56 57 75 50
235 156 201 219 227 323 207 301 260 232 244 242 224 185 170 170 161 161 161 163 165 156 158 151 147 150 150 139 127 123 114 116 117 108 103 95 81 77 79 80 85 83 80 75 75 64 61 58 78
152 70 36 39 66 265 181 194 275 233 238 246 169 184 170 159 157 153 148 145 157 150 149 149 148 140 134 131 133 134 134 136 130 125 113 105 98 92 82 89 87 85 86 83 82 74 67 61 69
124 109 315 317 316 248 204 209 253 289 229 226 189 185 170 162 157 153 155 158 161 160 154 145 141 138 136 134 134 139 140 136 134 134 129 125 117 107 100 97 92 92 89 82 81 76 66 59 66
193 165 163 209 210 265 344 241 253 233 296 239 175 175 160 162 160 160 161 160 162 159 155 149 148 141 141 139 138 138 136 135 133 138 134 124 125 124 118 106 98 86 83 87 86 87 92 85 72
198 211 176 89 75 355 223 281 292 229 237 90 145 164 171 168 165 163 160 163 160 161 160 154 147 145 146 143 140 140 136 139 136 125 121 125 124 122 108 98 99 94 96 101 98 94 85 80 71
154 169 143 97 216 234 267 251 234 245 224 192 181 178 175 171 167 167 166 165 166 162 154 147 150 151 144 135 137 136 132 129 132 132 133 133 121 114 116 115 107 107 96 92 88 81 69 71 49
142 203 197 158 167 199 285 258 224 234 196 198 192 186 178 177 173 170 166 166 164 160 161 159 151 148 146 143 137 137 135 131 127 130 132 130 122 121 121 128 123 112 96 84 78 85 73 64 53
248 197 187 177 218 228 142 258 58 318 198 187 192 183 179 177 174 172 168 164 168 169 166 166 162 158 156 148 144 146 140 136 135 140 137 131 132 130 139 130 113 107 101 104 102 89 69 58 27